Weather observations for the past three days for
Langdon
Imperial (Metric)
Date Time (cdt) Wind (mph) Vis. (mi.) Weather Sky Cond. Temperature (ºF) Relative Humidity Wind Chill (°F) Heat Index (°F) Pressure Precipitation (in)
Air Dwpt 6 hour altimeter (in) sea level (mb) 1 hr 3 hr 6 hr
Max. Min.
01 15:35 W 17 G 25 10.00 Fair CLR 77 44.6 32% 78 29.92 0.0
01 15:15 NW 17 G 23 10.00 Fair CLR 77 46.4 34% 78 29.92 0.0
01 14:55 NW 16 G 23 10.00 Fair CLR 77 44.6 32% 78 29.92 0.0
01 14:35 NW 18 G 26 10.00 Fair CLR 77 44.6 32% 78 29.92 0.0
01 14:15 NW 20 10.00 Fair CLR 77 44.6 32% 78 29.92 0.0
01 13:55 NW 16 G 23 10.00 Fair CLR 77 46.4 34% 78 29.93 0.0
01 13:35 W 18 10.00 Fair CLR 75.2 46.4 36% 77 29.93 0.0
01 13:15 NW 16 G 23 10.00 Fair CLR 75.2 48.2 39% 77 29.93 0.0
01 12:55 NW 22 10.00 Fair and Breezy CLR 75.2 48.2 39% 77 29.92 0.0
01 12:35 W 18 G 25 10.00 Fair CLR 73.4 50 44% 29.93 0.0
01 12:15 W 17 G 25 10.00 A Few Clouds FEW040 73.4 51.8 47% 29.93 0.0
01 11:35 W 15 G 28 10.00 Fair CLR 71.6 53.6 53% 29.93 0.0
01 11:15 W 20 G 25 10.00 Fair CLR 69.8 53.6 57% 29.93 0.0
01 10:55 W 17 10.00 Fair CLR 69.8 55.4 60% 29.93 0.0
01 10:35 W 17 10.00 Fair CLR 68 59 73% 29.93 0.0
01 10:15 W 14 G 23 10.00 Fair CLR 66.2 66.2 100% 29.93 0.0
01 09:55 W 20 10.00 Fair CLR 64.4 64.4 100% 29.93 0.0
01 09:35 W 18 G 24 10.00 Fair CLR 64.4 64.4 100% 29.93 0.0
01 09:15 W 15 G 21 10.00 Fair CLR 62.6 62.6 100% 29.92 0.0
01 08:55 W 15 10.00 Fair CLR 60.8 60.8 100% 29.93 0.0
01 08:35 W 14 G 21 10.00 Fair CLR 60.8 60.8 100% 29.92 0.0
01 08:15 SW 13 G 21 10.00 Fair CLR 59 59 100% 29.92 0.0
01 07:55 SW 14 10.00 Fair CLR 57.2 57.2 100% 29.91 0.0
01 07:35 W 15 G 22 10.00 Fair CLR 57.2 57.2 100% 29.9 0.0
01 07:15 SW 14 10.00 Fair CLR 55.4 55.4 100% 29.89 0.0
01 06:55 W 15 G 21 10.00 Fair CLR 55.4 55.4 100% 29.89 0.0
01 06:35 W 14 G 20 10.00 Fair CLR 55.4 55.4 100% 29.88 0.0
01 06:15 SW 14 10.00 Fair CLR 55.4 55.4 100% 29.88 0.0
01 05:55 SW 13 10.00 Fair CLR 55.4 55.4 100% 29.88 0.0
01 05:35 SW 13 10.00 Fair CLR 57.2 57.2 100% 29.88 0.0
01 05:15 SW 13 10.00 Fair CLR 55.4 55.4 100% 29.87 0.0
01 04:55 SW 12 10.00 Fair CLR 55.4 55.4 100% 29.87 0.0
01 04:35 SW 10 10.00 Fair CLR 57.2 57.2 100% 29.87 0.0
01 04:15 W 10 10.00 Fair CLR 57.2 57.2 100% 29.86 0.0
01 03:55 W 9 10.00 Fair CLR 57.2 57.2 100% 29.86 0.0
01 03:35 W 10 10.00 Fair CLR 55.4 55.4 100% 29.85 0.0
01 03:15 SW 7 10.00 Fair CLR 57.2 57.2 100% 29.85 0.0
01 02:55 W 12 10.00 Fair CLR 59 59 100% 29.84 0.0
01 02:35 W 14 G 20 10.00 Fair CLR 59 59 100% 29.85 0.0
01 02:15 W 15 G 22 10.00 Fair CLR 60.8 60.8 100% 29.85 0.0
01 01:55 W 14 10.00 Fair CLR 60.8 60.8 100% 29.84 0.0
01 01:35 W 15 G 21 10.00 Fair CLR 60.8 60.8 100% 29.84 0.0
01 01:15 W 16 10.00 Fair CLR 60.8 60.8 100% 29.84 0.0
01 00:55 W 16 G 23 10.00 Fair CLR 60.8 60.8 100% 29.84 0.0
01 00:35 W 20 G 29 10.00 Fair CLR 62.6 62.6 100% 29.83 0.0
01 00:15 W 17 10.00 Fair CLR 62.6 62.6 100% 29.83 0.0
31 23:55 W 18 G 24 10.00 Fair CLR 62.6 62.6 100% 29.83 0.0
31 23:35 W 16 G 22 10.00 Fair CLR 62.6 62.6 100% 29.82 0.0
31 23:15 W 15 G 25 10.00 Fair CLR 62.6 62.6 100% 29.82 0.0
31 22:55 W 17 10.00 Fair CLR 62.6 62.6 100% 29.82 0.0
31 22:35 W 15 G 22 10.00 Fair CLR 62.6 62.6 100% 29.82 0.0
31 22:15 W 15 10.00 Fair CLR 62.6 62.6 100% 29.82 0.0
31 21:55 W 17 10.00 Fair CLR 62.6 62.6 100% 29.81 0.0
31 21:35 W 14 G 20 10.00 Fair CLR 64.4 60.8 88% 29.8 0.0
31 21:15 W 18 10.00 Fair CLR 66.2 57.2 73% 29.8 0.0
31 20:55 W 18 G 26 10.00 Fair CLR 66.2 55.4 68% 29.79 0.0
31 20:35 W 17 G 28 10.00 Fair CLR 66.2 53.6 64% 29.78 0.0
31 20:15 W 21 G 30 10.00 Fair and Breezy CLR 68 51.8 56% 29.77 0.0
31 19:55 W 22 G 32 10.00 Fair and Breezy CLR 69.8 50 50% 29.76 0.0
31 19:35 W 26 G 39 10.00 Fair and Windy CLR 69.8 51.8 53% 29.75 0.0
31 19:15 W 26 G 39 10.00 Fair and Windy CLR 71.6 50 47% 29.74 0.0
31 18:55 W 24 G 36 10.00 Fair and Breezy CLR 71.6 50 47% 29.73 0.0
31 18:35 W 29 G 40 10.00 Fair and Windy CLR 73.4 50 44% 29.72 0.0
31 18:15 W 26 G 39 10.00 A Few Clouds and Windy FEW075 75.2 50 41% 78 29.71 0.0
31 17:55 W 31 G 45 10.00 A Few Clouds and Windy FEW070 77 44.6 32% 78 29.7 0.0
31 17:35 W 32 G 40 10.00 Partly Cloudy and Windy SCT080 78.8 42.8 28% 78 29.7 0.0
31 17:15 W 24 G 48 10.00 Mostly Cloudy and Breezy BKN075 77 42.8 30% 78 29.7 0.0
31 16:55 W 32 G 40 10.00 Mostly Cloudy and Windy BKN075 77 41 28% 78 29.69 0.0
31 16:35 SW 37 G 45 9.00 Partly Cloudy and Windy SCT070 78.8 41 26% 78 29.68 0.0
31 16:15 SW 32 G 47 10.00 Partly Cloudy and Windy SCT070 77 39.2 26% 77 29.69 0.0
31 15:55 SW 26 G 48 9.00 A Few Clouds and Windy FEW070 78.8 41 26% 78 29.7 0.0
31 15:35 SW 31 G 52 9.00 Fair and Windy CLR 78.8 41 26% 78 29.7 0.0
31 15:15 SW 37 G 49 9.00 Fair and Windy CLR 77 41 28% 78 29.7 0.0
31 14:55 SW 37 G 47 9.00 Fair and Windy CLR 77 41 28% 78 29.7 0.0
31 14:35 SW 36 G 45 10.00 Fair and Windy CLR 77 39.2 26% 77 29.7 0.0
31 14:15 SW 35 G 48 10.00 Fair and Windy CLR 77 39.2 26% 77 29.71 0.0
31 13:55 SW 36 G 47 10.00 Fair and Windy CLR 77 37.4 24% 77 29.72 0.0
31 13:35 SW 35 G 46 9.00 Fair and Windy CLR 77 37.4 24% 77 29.72 0.0
31 13:15 SW 30 G 43 9.00 Fair and Windy CLR 77 37.4 24% 77 29.73 0.0
31 12:55 SW 30 G 41 9.00 Fair and Windy CLR 75.2 39.2 27% 77 29.75 0.0
31 12:35 SW 30 G 43 10.00 Fair and Windy CLR 75.2 39.2 27% 77 29.76 0.0
31 12:15 SW 25 G 36 10.00 Fair and Breezy CLR 73.4 42.8 33% 29.77 0.0
31 11:55 SW 28 G 33 10.00 Fair and Windy CLR 71.6 42.8 36% 29.78 0.0
31 11:35 SW 26 G 36 10.00 Fair and Windy CLR 71.6 46.4 41% 29.78 0.0
31 11:15 SW 21 G 29 10.00 Fair and Breezy CLR 69.8 55.4 60% 29.79 0.0
31 10:55 SW 15 G 30 10.00 Fair CLR 68 59 73% 29.8 0.0
31 10:35 SW 21 G 29 10.00 Fair and Breezy CLR 66.2 66.2 100% 29.81 0.0
31 10:15 SW 21 G 30 10.00 Fair and Breezy CLR 66.2 66.2 100% 29.81 0.0
31 09:55 SW 10 G 24 10.00 Fair CLR 66.2 66.2 100% 29.81 0.0
31 09:35 SW 15 G 22 10.00 Fair CLR 64.4 64.4 100% 29.81 0.0
31 09:15 SW 10 10.00 Fair CLR 62.6 62.6 100% 29.8 0.0
31 08:55 SW 10 10.00 Fair CLR 60.8 60.8 100% 29.8 0.0
31 08:35 SW 12 10.00 Fair CLR 59 59 100% 29.79 0.0
31 08:15 SW 9 10.00 Fair CLR 59 59 100% 29.79 0.0
31 07:55 SW 12 8.00 Fair CLR 57.2 57.2 100% 29.79 0.0
31 07:35 SW 10 8.00 Fair CLR 57.2 57.2 100% 29.78 0.0
31 07:15 SW 9 7.00 Fair CLR 55.4 55.4 100% 29.78 0.0
31 06:55 SW 8 7.00 Fair CLR 55.4 55.4 100% 29.77 0.0
31 06:35 SW 9 8.00 Fair CLR 57.2 57.2 100% 29.77 0.0
31 06:15 SW 9 9.00 Fair CLR 57.2 57.2 100% 29.77 0.0
31 05:55 W 10 10.00 Fair CLR 59 59 100% 29.77 0.0
31 05:35 W 14 10.00 Fair CLR 59 59 100% 29.77 0.0
31 05:15 W 12 8.00 Fair CLR 60.8 60.8 100% 29.76 0.0
31 04:55 W 12 7.00 Fair CLR 60.8 60.8 100% 29.75 0.0
31 04:35 W 12 7.00 Fair CLR 60.8 60.8 100% 29.75 0.0
31 04:15 W 10 8.00 Partly Cloudy SCT006 62.6 62.6 100% 29.75 0.0
31 03:55 W 14 10.00 Mostly Cloudy BKN007 62.6 62.6 100% 29.74 0.0
31 03:35 W 9 10.00 Mostly Cloudy FEW006 BKN028 62.6 62.6 100% 29.74 0.0
31 03:15 W 10 10.00 Overcast SCT005 OVC029 64.4 64.4 100% 29.74 0.0
31 02:55 W 9 G 16 10.00 Overcast BKN005 BKN014 OVC026 64.4 64.4 100% 29.73 0.0
31 02:35 W 10 10.00 Overcast OVC024 64.4 64.4 100% 29.73 0.0
31 02:15 W 14 10.00 Mostly Cloudy FEW012 BKN027 BKN032 62.6 62.6 100% 29.72 0.0
31 01:55 W 8 10.00 Mostly Cloudy BKN010 BKN013 BKN019 62.6 62.6 100% 29.71 0.0
31 01:35 W 14 10.00 Mostly Cloudy SCT008 SCT013 BKN020 64.4 64.4 100% 29.72 0.0
31 01:15 Calm 10.00 Mostly Cloudy BKN012 64.4 64.4 100% 29.7 0.0
31 00:55 W 5 10.00 Mostly Cloudy SCT005 BKN009 BKN012 64.4 64.4 100% 29.69 0.0
31 00:35 E 7 10.00 Overcast OVC005 66.2 66.2 100% 29.67 0.0
31 00:15 Vrbl 6 5.00 Light Rain BKN005 OVC008 66.2 66.2 100% 29.68 0.0
30 23:55 N 8 2.50 Rain BKN003 BKN008 OVC030 66.2 66.2 100% 29.69 0.0
30 23:35 S 10 0.75 Heavy Rain OVC003 66.2 66.2 100% 29.72 0.0
30 23:15 SE 7 0.75 Thunderstorm in Vicinity Rain BKN002 OVC008 66.2 66.2 100% 29.71 0.0
30 22:55 SE 10 9.00 Overcast OVC012 68 68 100% 29.7 0.0
30 22:35 E 10 10.00 Overcast OVC014 68 68 100% 29.72 0.0
30 22:15 SE 10 G 17 10.00 Overcast OVC014 68 68 100% 29.73 0.0
30 21:55 SE 10 G 18 6.00 Fog/Mist OVC016 68 68 100% 29.73 0.0
30 21:35 SE 9 G 16 10.00 Overcast BKN017 BKN024 OVC028 68 68 100% 29.74 0.0
30 21:15 SE 14 10.00 Overcast BKN016 OVC027 69.8 69.8 100% 29.75 0.0
30 20:55 SE 10 9.00 Overcast OVC016 69.8 69.8 100% 29.75 0.0
30 20:35 SE 12 10.00 Overcast OVC018 69.8 69.8 100% 29.74 0.0
30 20:15 E 10 10.00 Overcast BKN020 OVC025 71.6 71.6 100% 29.74 0.0
30 19:55 E 9 10.00 Overcast OVC021 71.6 71.6 100% 29.75 0.0
30 19:35 SE 13 8.00 Overcast OVC021 71.6 71.6 100% 29.75 0.0
30 19:15 SE 13 10.00 Overcast OVC021 71.6 71.6 100% 29.77 0.0
30 18:55 SE 8 10.00 Overcast OVC021 71.6 71.6 100% 29.77 0.0
30 18:35 SE 13 10.00 Overcast OVC020 73.4 73.4 100% 29.75 0.0
30 18:15 SE 10 G 20 10.00 Overcast OVC021 73.4 71.6 94% 29.76 0.0
30 17:55 SE 13 G 21 10.00 Mostly Cloudy BKN024 75.2 69.8 83% 75 29.75 0.0
30 17:35 SE 15 G 22 10.00 Mostly Cloudy BKN024 75.2 68 78% 76 29.75 0.0
30 17:15 E 13 G 18 10.00 Partly Cloudy SCT024 77 68 74% 79 29.76 0.0
30 16:55 E 15 10.00 Fair CLR 77 66.2 69% 79 29.77 0.0
30 16:35 E 15 10.00 Fair CLR 77 68 74% 79 29.77 0.0
30 16:15 SE 14 9.00 A Few Clouds FEW100 75.2 68 78% 76 29.79 0.0
30 15:55 SE 14 9.00 A Few Clouds FEW095 75.2 68 78% 76 29.8 0.0
30 15:35 SE 10 10.00 A Few Clouds FEW095 77 68 74% 79 29.81 0.0
30 15:15 SE 13 G 18 10.00 A Few Clouds FEW029 77 66.2 69% 79 29.81 0.0
30 14:55 SE 13 G 20 10.00 Partly Cloudy SCT029 SCT100 80.6 62.6 54% 82 29.82 0.0
30 14:35 SE 14 10.00 Partly Cloudy FEW031 SCT100 80.6 62.6 54% 82 29.82 0.0
30 14:15 SE 14 G 20 10.00 A Few Clouds FEW032 80.6 60.8 51% 81 29.82 0.0
30 13:55 E 17 10.00 A Few Clouds FEW030 80.6 60.8 51% 81 29.82 0.0
30 13:35 E 15 G 24 10.00 Partly Cloudy SCT027 78.8 62.6 58% 80 29.82 0.0
30 13:15 E 14 G 23 10.00 A Few Clouds FEW026 77 64.4 65% 79 29.83 0.0
30 12:55 E 15 G 21 10.00 Partly Cloudy SCT026 77 62.6 61% 79 29.84 0.0
30 12:35 SE 16 G 23 10.00 Partly Cloudy SCT024 77 62.6 61% 79 29.84 0.0
30 12:15 E 15 10.00 Mostly Cloudy BKN022 75.2 66.2 74% 77 29.84 0.0
30 11:55 SE 13 G 20 10.00 Partly Cloudy SCT019 75.2 75.2 100% 73 29.85 0.0
30 11:35 E 14 10.00 Mostly Cloudy BKN014 BKN020 73.4 73.4 100% 29.85 0.0
30 11:15 E 12 G 21 10.00 Mostly Cloudy BKN013 73.4 73.4 100% 29.85 0.0
30 10:55 E 14 10.00 Partly Cloudy SCT011 71.6 71.6 100% 29.85 0.0
30 10:35 E 13 G 21 10.00 Partly Cloudy SCT008 69.8 69.8 100% 29.85 0.0
30 10:15 E 13 7.00 Mostly Cloudy BKN005 68 68 100% 29.85 0.0
30 09:55 E 10 G 17 6.00 Fog/Mist BKN004 BKN040 66.2 66.2 100% 29.86 0.0
30 09:35 E 12 6.00 Fog/Mist BKN004 OVC039 66.2 66.2 100% 29.86 0.0
30 09:15 E 8 G 14 7.00 Overcast BKN005 OVC036 66.2 66.2 100% 29.86 0.0
30 08:55 E 7 6.00 Fog/Mist OVC004 66.2 66.2 100% 29.87 0.0
30 08:35 E 8 3.00 Fog/Mist OVC003 66.2 66.2 100% 29.86 0.0
30 08:15 E 9 3.00 Fog/Mist OVC003 66.2 66.2 100% 29.86 0.0
30 07:55 E 9 6.00 Fog/Mist SCT004 66.2 66.2 100% 29.86 0.0
30 07:35 E 7 5.00 Fog/Mist SCT070 66.2 66.2 100% 29.86 0.0
30 07:15 N 6 5.00 Fog/Mist FEW025 BKN070 66.2 66.2 100% 29.86 0.0
30 06:55 E 8 6.00 Fog/Mist SCT024 SCT065 SCT095 66.2 66.2 100% 29.86 0.0
30 06:35 E 6 8.00 Partly Cloudy FEW037 FEW080 SCT090 66.2 66.2 100% 29.85 0.0
30 06:15 E 7 10.00 Mostly Cloudy BKN037 BKN050 BKN070 66.2 66.2 100% 29.85 0.0
30 05:55 E 7 10.00 Mostly Cloudy BKN036 BKN050 BKN070 66.2 66.2 100% 29.85 0.0
30 05:35 E 5 10.00 Overcast OVC034 66.2 66.2 100% 29.86 0.0
30 05:15 E 5 9.00 Overcast SCT018 SCT024 OVC033 64.4 64.4 100% 29.86 0.0
30 04:55 E 5 8.00 Mostly Cloudy BKN018 64.4 64.4 100% 29.86 0.0
30 04:35 E 6 7.00 A Few Clouds FEW036 64.4 64.4 100% 29.85 0.0
30 04:15 SE 6 7.00 A Few Clouds FEW036 64.4 64.4 100% 29.85 0.0
30 03:55 NE 3 10.00 Fair CLR 64.4 64.4 100% 29.86 0.0
30 03:35 E 3 8.00 Fair CLR 62.6 62.6 100% 29.86 0.0
30 03:15 E 5 7.00 Fair CLR 62.6 62.6 100% 29.85 0.0
30 02:55 E 5 7.00 A Few Clouds FEW028 FEW037 62.6 62.6 100% 29.86 0.0
30 02:35 E 6 7.00 Partly Cloudy FEW027 SCT037 62.6 62.6 100% 29.87 0.0
30 02:15 E 5 7.00 Partly Cloudy SCT037 62.6 62.6 100% 29.87 0.0
30 01:55 E 5 8.00 Partly Cloudy SCT020 SCT039 62.6 62.6 100% 29.87 0.0
30 01:35 E 5 9.00 Mostly Cloudy BKN020 62.6 62.6 100% 29.87 0.0
30 01:15 NE 6 9.00 Fair CLR 62.6 62.6 100% 29.86 0.0
30 00:55 E 3 10.00 Fair CLR 64.4 64.4 100% 29.87 0.0
30 00:35 E 6 10.00 Fair CLR 64.4 64.4 100% 29.87 0.0
30 00:15 E 5 10.00 Fair CLR 64.4 64.4 100% 29.88 0.0
29 23:55 E 5 10.00 Fair CLR 64.4 64.4 100% 29.88 0.0
29 23:35 Calm 10.00 A Few Clouds FEW041 64.4 64.4 100% 29.88 0.0
29 23:15 SE 6 9.00 Fair CLR 66.2 66.2 100% 29.88 0.0
29 22:55 SE 7 10.00 Fair CLR 66.2 66.2 100% 29.87 0.0
29 22:35 SE 8 10.00 Fair CLR 66.2 66.2 100% 29.86 0.0
29 22:15 SE 7 10.00 Fair CLR 66.2 66.2 100% 29.87 0.0
29 21:55 E 6 10.00 Fair CLR 68 68 100% 29.87 0.0
29 21:35 E 7 6.00 Fog/Mist CLR 68 68 100% 29.85 0.0
29 21:15 SE 6 6.00 Fog/Mist CLR 68 68 100% 29.85 0.0
29 20:55 SE 7 6.00 Fog/Mist CLR 69.8 69.8 100% 29.85 0.0
29 20:35 SE 7 3.00 Fog/Mist CLR 69.8 69.8 100% 29.84 0.0
29 20:15 SE 7 5.00 Fog/Mist CLR 71.6 71.6 100% 29.84 0.0
29 19:55 SE 7 4.00 Fair with Haze CLR 75.2 69.8 83% 75 29.84 0.0
29 19:35 SE 7 6.00 Fair with Haze CLR 75.2 66.2 74% 77 29.83 0.0
29 19:15 SE 7 4.00 Fair with Haze CLR 77 66.2 69% 79 29.83 0.0
29 18:55 SE 7 7.00 Fair CLR 77 64.4 65% 79 29.83 0.0
29 18:35 SE 8 9.00 Fair CLR 78.8 62.6 58% 80 29.83 0.0
29 18:15 E 8 9.00 Fair CLR 78.8 62.6 58% 80 29.83 0.0
29 17:55 E 8 10.00 Fair CLR 80.6 62.6 54% 82 29.83 0.0
29 17:35 E 6 10.00 Fair CLR 80.6 62.6 54% 82 29.82 0.0
29 17:15 Vrbl 6 10.00 Fair CLR 80.6 60.8 51% 81 29.82 0.0
29 16:55 E 5 G 12 9.00 Fair CLR 80.6 60.8 51% 81 29.82 0.0
29 16:35 E 9 9.00 Fair CLR 80.6 62.6 54% 82 29.82 0.0
29 16:15 E 7 G 13 10.00 Fair CLR 80.6 64.4 58% 82 29.82 0.0
29 15:55 NE 8 9.00 Fair CLR 78.8 66.2 65% 81 29.83 0.0
Date Time (cdt) Wind (mph) Vis. (mi.) Weather Sky Cond. Air Dwpt Max. Min. Relative Humidity Wind Chill (°F) Heat Index (°F) altimeter (in) sea level (mb) 1 hr 3 hr 6 hr
6 hour
Temperature (ºF) Pressure Precipitation (in)